CZ-4C R/B (53699 NORAD) Tracking and Keplerian Element Data

This shows tracking and keplerian element data for the satellite.

Feedback or suggestion? Click here.




ElementValue
Catalog53699
NameCZ-4C R/B
Epoch Orbit357
Epoch Day269.98459621
Epoch Year2022
RAAN277.088
Inclination98.2021
Eccentricity0.0143782
Argument of Perigee333.0045
Mean Anonmoly26.3746
Mean Motion14.915497
Decay Rate2.292E-05
L11 53699U 22106B 22269.98459621 .00002292 00000+0 19361-3 0 9995
L22 53699 98.2021 277.0880 0143782 333.0045 26.3746 14.91549700 3574



Live tracking and technical data element details for CZ-4C R/B (NORAD 53699). CZ-4C R/B can be tracked NOW for your location showing map with azimuth and elevation plus other details from your city location.







IsCatalogInMostPopularTable: catalog: 53699, numindb: -1

Insert: records affected: 1


GetName: 53699 CZ-4C R/B

Hit Count: inserted at: Thu, 08 Dec 2022 19:25:06 GMT